Aérodrome :
LOGIN :

S'inscrire | Disclaimer

   EN    FR    IT 

 










Légende :    VFR   VFR Marginal   IFR   IFR Intensif   IFR Très Intensif
Visi : 
Plafond : 
>= 8 km
>= 3000ft
5 à 8 km
1000 à 3000 ft
1500m à 5 km
500 à 1000 ft
800 à 1500m
200 à 500 ft
< 800m
< 200 ft
Symboles :   Orages  Brouillard  Fortes neiges  Fortes précipitations  Vent > 20 kt
SIGMETs :   Divers  Orages  Givrage  Turbulence  Onde Orograph.  Cendres Volcan.






- Altitude de l'aérodrome : 2551 ft
- Code IATA : TUU


OETB - Tabuk

DERNIER METAR :
  • 280800Z 29005KT CAVOK 29/03 Q1014 NOSIG

METARs EXPIRÉS :
  • 280700Z 03003KT CAVOK 28/05 Q1015 NOSIG
  • 280600Z 33004KT CAVOK 26/06 Q1015 NOSIG

TAF TAF OETB
Valide du 28 à 00h jusqu'au 29 à 06h UTC


272300Z 2800/2906 24006G16KT 7000 NSC
TEMPO 2806/2816 4000 DU BLDU
FIR OEJD / Asie



MET'MAP, la Météo Aéronautique d'un coup d'oeil ! - Copyright ORBIFLY Décembre 2007 - Disclaimer

ORBIFLY MET'MAP TEAM :

Programmation & Développement : Alexandra Zaïnal
Sur une idée originale de : Baudouin d'Aumeries
Assistance à la programmation : Marc-Olivier Méhu
Soutien technique & logistique : Manuel Goepfert

Contact : metmap@orbifly.com




SOURCES & CREDITS :

   NOAA